STARLINK-5135 (54005 NORAD) Tracking and Keplerian Element Data

This shows tracking and keplerian element data for the satellite.

Feedback or suggestion? Click here.




ElementValue
Catalog54005
NameSTARLINK-5135
Epoch Orbit130
Epoch Day324.91667824
Epoch Year2022
RAAN225.4657
Inclination53.2166
Eccentricity0.0001008
Argument of Perigee97.2181
Mean Anonmoly179.5135
Mean Motion15.49899275
Decay Rate-0.00015476
L11 54005U 22125AT 22324.91667824 -.00015476 00000+0 -26512-3 0 9995
L22 54005 53.2166 225.4657 0001008 97.2181 179.5135 15.49899275 1301



Live tracking and technical data element details for STARLINK-5135 (NORAD 54005). STARLINK-5135 can be tracked NOW for your location showing map with azimuth and elevation plus other details from your city location.







IsCatalogInMostPopularTable: catalog: 54005, numindb: 5
Update: records affected: 1



GetName: 54005 STARLINK-5135

Hit Count: updated at: Mon, 28 Nov 2022 21:21:57 GMT